TimeEDT,TemperatureF,Dew PointF,Humidity,Sea Level PressureIn,VisibilityMPH,Wind Direction,Wind SpeedMPH,Gust SpeedMPH,PrecipitationIn,Events,Conditions,WindDirDegrees,DateUTC
12:54 AM,66.9,64.9,93,30.17,10.0,Calm,Calm,-,N/A,,Overcast,0,2013-09-10 04:54:00
1:54 AM,70.0,66.0,87,30.16,10.0,Variable,4.6,-,N/A,,Overcast,0,2013-09-10 05:54:00
2:54 AM,71.1,66.9,87,30.15,10.0,Variable,3.5,-,N/A,,Mostly Cloudy,0,2013-09-10 06:54:00
3:54 AM,71.1,66.9,87,30.16,10.0,SSW,4.6,-,N/A,,Overcast,200,2013-09-10 07:54:00
4:54 AM,71.1,68.0,90,30.16,10.0,Variable,4.6,-,N/A,,Mostly Cloudy,0,2013-09-10 08:54:00
5:10 AM,71.6,68.0,88,30.16,10.0,Variable,4.6,-,N/A,,Overcast,0,2013-09-10 09:10:00
5:20 AM,71.6,68.0,88,30.16,10.0,Variable,4.6,-,N/A,,Overcast,0,2013-09-10 09:20:00
5:52 AM,71.6,69.8,94,30.17,10.0,Variable,3.5,-,N/A,,Overcast,0,2013-09-10 09:52:00
5:54 AM,71.1,69.1,93,30.17,10.0,Variable,3.5,-,N/A,,Overcast,0,2013-09-10 09:54:00
6:33 AM,71.6,69.8,94,30.18,10.0,Variable,4.6,-,N/A,,Overcast,0,2013-09-10 10:33:00
6:54 AM,71.1,69.1,93,30.19,10.0,Variable,4.6,-,N/A,,Overcast,0,2013-09-10 10:54:00
7:54 AM,72.0,69.1,91,30.18,10.0,Variable,4.6,-,N/A,,Overcast,0,2013-09-10 11:54:00
8:54 AM,73.9,70.0,87,30.17,10.0,Variable,6.9,17.3,N/A,,Partly Cloudy,0,2013-09-10 12:54:00
9:54 AM,77.0,70.0,79,30.20,10.0,WSW,6.9,-,N/A,,Mostly Cloudy,240,2013-09-10 13:54:00
10:38 AM,77.0,69.8,78,30.21,10.0,WSW,8.1,-,N/A,,Overcast,240,2013-09-10 14:38:00
10:54 AM,78.1,71.1,79,30.20,10.0,Variable,5.8,-,N/A,,Overcast,0,2013-09-10 14:54:00
11:08 AM,78.8,71.6,78,30.20,10.0,Variable,6.9,-,N/A,,Overcast,0,2013-09-10 15:08:00
11:54 AM,81.0,72.0,74,30.18,10.0,Variable,5.8,-,N/A,,Overcast,0,2013-09-10 15:54:00
12:54 PM,82.9,72.0,69,30.17,10.0,Variable,5.8,-,N/A,,Mostly Cloudy,0,2013-09-10 16:54:00
1:06 PM,82.4,71.6,70,30.16,10.0,Variable,5.8,-,N/A,,Scattered Clouds,0,2013-09-10 17:06:00
1:54 PM,84.0,73.0,69,30.14,10.0,Variable,4.6,-,N/A,,Partly Cloudy,0,2013-09-10 17:54:00
2:54 PM,84.0,72.0,67,30.12,10.0,South,8.1,-,N/A,,Clear,190,2013-09-10 18:54:00
3:54 PM,84.9,72.0,65,30.11,10.0,Variable,5.8,-,N/A,,Clear,0,2013-09-10 19:54:00
4:54 PM,84.0,73.0,69,30.10,10.0,Variable,6.9,-,N/A,,Clear,0,2013-09-10 20:54:00
5:54 PM,82.0,73.0,74,30.10,10.0,South,3.5,-,N/A,,Partly Cloudy,180,2013-09-10 21:54:00
6:54 PM,80.1,73.0,79,30.11,9.0,Calm,Calm,-,N/A,,Clear,0,2013-09-10 22:54:00
7:54 PM,77.0,72.0,84,30.12,9.0,Calm,Calm,-,N/A,,Clear,0,2013-09-10 23:54:00
8:54 PM,75.9,72.0,87,30.13,8.0,Calm,Calm,-,N/A,,Clear,0,2013-09-11 00:54:00
9:54 PM,75.9,72.0,87,30.15,8.0,Calm,Calm,-,N/A,,Clear,0,2013-09-11 01:54:00
10:54 PM,75.0,72.0,90,30.16,7.0,Calm,Calm,-,N/A,,Clear,0,2013-09-11 02:54:00
11:54 PM,75.0,72.0,90,30.15,6.0,Calm,Calm,-,N/A,,Clear,0,2013-09-11 03:54:00